Location: Владивосток
(43.1151°N, 131.8856°E)
Time: 12:50:46
(UTC+10:00)

X-37B - Visible Passes

Search period start: 05 October 2023 00:00
Search period end: 15 October 2023 00:00
Orbit: 277 x 277 km, 45.0° (Epoch: 01 November)

Date Brightness Start Highest point End Pass type
(mag) Time Alt. Az. Time Alt. Az. Time Alt. Az.
07 Oct 2.0 20:03:01 10° SSW 20:04:13 18° S 20:04:13 18° S visible
08 Oct 1.0 20:03:15 10° SW 20:05:10 32° S 20:05:10 32° S visible
09 Oct 0.1 20:03:45 10° WSW 20:06:00 58° S 20:06:00 58° S visible
10 Oct -0.1 20:04:23 10° WSW 20:06:45 81° W 20:06:45 81° W visible
11 Oct 0.2 20:05:06 10° W 20:07:25 61° NNW 20:07:25 61° NNW visible
12 Oct 0.6 20:05:52 10° W 20:08:03 49° NNW 20:08:03 49° NNW visible
13 Oct 0.9 20:06:36 10° WNW 20:08:38 43° NW 20:08:38 43° NW visible
14 Oct 1.0 20:07:20 10° WNW 20:09:13 41° NW 20:09:13 41° NW visible
